Location: Bannatyne
(13.0833°N, 59.5333°W)
Time: 01:13:14
(UTC+00:00)

Explorer 7 - Pass Details

Date: 27 January 2020
Orbit: 485 x 679 km, 50.3° (Epoch: 25 February)

Event Time Altitude Azimuth Distance (km) Brightness Sun altitude
Rises 22:27:43 0° 195° (SSW) 2,785 10.9 -8.0°
Reaches altitude 10° 22:30:21 10° 182° (S) 1,847 9.8 -8.6°
Maximum altitude 22:33:46 24° 127° (SE) 1,138 8.1 -9.4°
Enters shadow 22:36:22 14° 79° (ENE) 1,552 8.4 -10.0°
Drops below altitude 10° 22:37:02 10° 72° (ENE) 1,756 - -10.2°
Sets 22:39:28 0° 58° (ENE) 2,613 - -10.7°
